Data No,UTC Date,UTC Time,Latitude,Longitude,Course(deg),Temp(degC),Sal(psu)
548,2023/10/7,9:07,42-36.83N,141-37.01E,209,17.632,32.9044
549,2023/10/7,9:08,42-36.57N,141-36.89E,189,17.685,32.9923
550,2023/10/7,9:09,42-36.30N,141-36.87E,182,17.744,33.0868
551,2023/10/7,9:10,42-36.02N,141-36.86E,181,17.778,33.1593
552,2023/10/7,9:11,42-35.74N,141-36.86E,180,17.86,33.1905
553,2023/10/7,9:12,42-35.46N,141-36.86E,180,17.912,33.2904
554,2023/10/7,9:13,42-35.17N,141-36.85E,181,17.924,33.3784
555,2023/10/7,9:14,42-34.89N,141-36.84E,181,17.957,33.4153
556,2023/10/7,9:15,42-34.60N,141-36.83E,181,17.979,33.4506
557,2023/10/7,9:16,42-34.32N,141-36.81E,181,17.965,33.4695
558,2023/10/7,9:17,42-34.04N,141-36.80E,181,17.922,33.4698
559,2023/10/7,9:18,42-33.75N,141-36.79E,182,17.893,33.4756
560,2023/10/7,9:19,42-33.46N,141-36.77E,182,17.853,33.4873
561,2023/10/7,9:20,42-33.18N,141-36.76E,182,17.84,33.4892
562,2023/10/7,9:21,42-32.90N,141-36.74E,181,17.792,33.497
563,2023/10/7,9:22,42-32.62N,141-36.74E,182,17.73,33.5058
564,2023/10/7,9:23,42-32.33N,141-36.72E,182,17.671,33.5138
565,2023/10/7,9:24,42-32.04N,141-36.70E,182,17.598,33.5237
566,2023/10/7,9:25,42-31.74N,141-36.68E,183,17.534,33.5323
567,2023/10/7,9:26,42-31.47N,141-36.65E,183,17.498,33.5367
568,2023/10/7,9:27,42-31.18N,141-36.63E,183,17.457,33.5349
569,2023/10/7,9:28,42-30.90N,141-36.60E,184,17.421,33.5342
570,2023/10/7,9:29,42-30.61N,141-36.57E,184,17.397,33.5374
571,2023/10/7,9:30,42-30.31N,141-36.54E,184,17.377,33.5425
572,2023/10/7,9:31,42-30.02N,141-36.51E,185,17.339,33.5509
573,2023/10/7,9:32,42-29.74N,141-36.47E,184,17.252,33.5556
574,2023/10/7,9:33,42-29.47N,141-36.44E,184,17.209,33.5628
575,2023/10/7,9:34,42-29.18N,141-36.41E,185,17.132,33.5697
576,2023/10/7,9:35,42-28.90N,141-36.38E,184,17.039,33.5752
577,2023/10/7,9:36,42-28.61N,141-36.34E,184,16.949,33.5814
578,2023/10/7,9:37,42-28.33N,141-36.31E,184,16.804,33.592
579,2023/10/7,9:38,42-28.04N,141-36.28E,184,16.717,33.6122
580,2023/10/7,9:39,42-27.75N,141-36.24E,184,16.613,33.6333
581,2023/10/7,9:40,42-27.48N,141-36.21E,184,16.562,33.648
582,2023/10/7,9:41,42-27.19N,141-36.18E,184,16.558,33.6503
583,2023/10/7,9:42,42-26.91N,141-36.15E,185,16.569,33.6522
584,2023/10/7,9:43,42-26.63N,141-36.12E,183,16.605,33.649
585,2023/10/7,9:44,42-26.35N,141-36.10E,182,16.585,33.6487
586,2023/10/7,9:45,42-26.06N,141-36.08E,182,16.55,33.6511
587,2023/10/7,9:46,42-25.79N,141-36.06E,182,16.502,33.6569
588,2023/10/7,9:47,42-25.51N,141-36.04E,183,16.469,33.6609
589,2023/10/7,9:48,42-25.23N,141-36.02E,182,16.425,33.6637
590,2023/10/7,9:49,42-24.94N,141-36.00E,182,16.391,33.665
591,2023/10/7,9:50,42-24.67N,141-35.99E,182,16.388,33.6643
592,2023/10/7,9:51,42-24.39N,141-35.97E,182,16.414,33.6636
593,2023/10/7,9:52,42-24.10N,141-35.95E,182,16.466,33.6685
594,2023/10/7,9:53,42-23.83N,141-35.93E,182,16.465,33.6731
595,2023/10/7,9:54,42-23.55N,141-35.91E,182,16.464,33.6815
596,2023/10/7,9:55,42-23.27N,141-35.89E,182,16.456,33.6843
597,2023/10/7,9:56,42-23.00N,141-35.88E,182,16.447,33.6865
598,2023/10/7,9:57,42-22.72N,141-35.86E,182,16.435,33.6885
599,2023/10/7,9:58,42-22.44N,141-35.84E,182,16.41,33.6892
600,2023/10/7,9:59,42-22.16N,141-35.82E,182,16.378,33.6903
601,2023/10/7,10:00,42-21.89N,141-35.80E,183,16.347,33.6908
602,2023/10/7,10:01,42-21.62N,141-35.78E,182,16.315,33.6919
603,2023/10/7,10:02,42-21.34N,141-35.77E,182,16.285,33.6935
604,2023/10/7,10:03,42-21.08N,141-35.75E,182,16.255,33.6929
605,2023/10/7,10:04,42-20.80N,141-35.74E,182,16.22,33.6941
606,2023/10/7,10:05,42-20.53N,141-35.72E,182,16.183,33.6928
607,2023/10/7,10:06,42-20.26N,141-35.71E,182,16.152,33.6988
608,2023/10/7,10:07,42-19.98N,141-35.69E,181,16.097,33.7019
609,2023/10/7,10:08,42-19.71N,141-35.68E,181,15.958,33.7024
610,2023/10/7,10:09,42-19.44N,141-35.68E,181,15.973,33.695
611,2023/10/7,10:10,42-19.18N,141-35.66E,181,16.013,33.6806
612,2023/10/7,10:11,42-18.91N,141-35.65E,181,16.041,33.6676
613,2023/10/7,10:12,42-18.63N,141-35.64E,181,16.055,33.6599
614,2023/10/7,10:13,42-18.37N,141-35.63E,181,16.087,33.6562
615,2023/10/7,10:14,42-18.09N,141-35.62E,181,16.074,33.6526
616,2023/10/7,10:15,42-17.83N,141-35.61E,181,16.107,33.6494
617,2023/10/7,10:16,42-17.56N,141-35.60E,181,16.206,33.644
618,2023/10/7,10:17,42-17.28N,141-35.60E,181,16.298,33.6438
619,2023/10/7,10:18,42-17.01N,141-35.59E,181,16.335,33.6477
620,2023/10/7,10:19,42-16.74N,141-35.58E,181,16.404,33.6553
621,2023/10/7,10:20,42-16.47N,141-35.57E,180,16.46,33.661
622,2023/10/7,10:21,42-16.19N,141-35.56E,181,16.438,33.6652
623,2023/10/7,10:22,42-15.92N,141-35.56E,180,16.336,33.6695
624,2023/10/7,10:23,42-15.65N,141-35.56E,180,16.183,33.6687
625,2023/10/7,10:24,42-15.37N,141-35.55E,180,16.157,33.6485
626,2023/10/7,10:25,42-15.10N,141-35.55E,180,16.159,33.6257
627,2023/10/7,10:26,42-14.82N,141-35.54E,180,16.17,33.6142
628,2023/10/7,10:27,42-14.55N,141-35.54E,180,16.183,33.608
629,2023/10/7,10:28,42-14.27N,141-35.54E,180,16.193,33.6059
630,2023/10/7,10:29,42-14.01N,141-35.54E,180,16.198,33.6027
631,2023/10/7,10:30,42-13.74N,141-35.54E,180,16.209,33.6028
632,2023/10/7,10:31,42-13.47N,141-35.53E,180,16.208,33.6041
633,2023/10/7,10:32,42-13.19N,141-35.53E,180,16.218,33.6059
634,2023/10/7,10:33,42-12.92N,141-35.53E,180,16.232,33.6078
635,2023/10/7,10:34,42-12.63N,141-35.52E,181,16.243,33.6094
636,2023/10/7,10:35,42-12.37N,141-35.52E,180,16.696,33.609
637,2023/10/7,10:36,42-12.10N,141-35.51E,180,16.849,33.6222
638,2023/10/7,10:37,42-11.82N,141-35.51E,180,16.918,33.6499
639,2023/10/7,10:38,42-11.55N,141-35.50E,181,16.988,33.6617
640,2023/10/7,10:39,42-11.26N,141-35.49E,181,17.051,33.6671
641,2023/10/7,10:40,42-11.00N,141-35.48E,181,17.092,33.6697
642,2023/10/7,10:41,42-10.73N,141-35.48E,180,17.115,33.6676
643,2023/10/7,10:42,42-10.45N,141-35.47E,181,17.13,33.6602
644,2023/10/7,10:43,42-10.18N,141-35.46E,181,17.13,33.6563
645,2023/10/7,10:44,42-09.90N,141-35.45E,181,17.116,33.6556
646,2023/10/7,10:45,42-09.63N,141-35.45E,180,17.118,33.6623
647,2023/10/7,10:46,42-09.36N,141-35.44E,180,17.15,33.6674
648,2023/10/7,10:47,42-09.08N,141-35.44E,180,17.209,33.6711
649,2023/10/7,10:48,42-08.78N,141-35.43E,180,17.238,33.6644
650,2023/10/7,10:49,42-08.51N,141-35.43E,180,17.261,33.6526
651,2023/10/7,10:50,42-08.24N,141-35.42E,180,17.268,33.6404
652,2023/10/7,10:51,42-08.01N,141-35.42E,181,17.267,33.6292
653,2023/10/7,10:52,42-07.72N,141-35.41E,181,17.253,33.6189
654,2023/10/7,10:53,42-07.43N,141-35.40E,181,17.216,33.6109
655,2023/10/7,10:54,42-07.16N,141-35.40E,180,17.145,33.5954
656,2023/10/7,10:55,42-06.88N,141-35.39E,181,17.042,33.5755
657,2023/10/7,10:56,42-06.61N,141-35.38E,181,16.972,33.5494
658,2023/10/7,10:57,42-06.33N,141-35.38E,181,16.893,33.5218
659,2023/10/7,10:58,42-06.06N,141-35.37E,181,16.79,33.4991
660,2023/10/7,10:59,42-05.78N,141-35.36E,180,16.706,33.4783
661,2023/10/7,11:00,42-05.51N,141-35.35E,181,16.729,33.4378
662,2023/10/7,11:01,42-05.23N,141-35.34E,181,16.797,33.4107
663,2023/10/7,11:02,42-04.96N,141-35.34E,181,16.893,33.3979
664,2023/10/7,11:03,42-04.69N,141-35.33E,181,17.129,33.3983
665,2023/10/7,11:04,42-04.42N,141-35.32E,181,17.404,33.3941
666,2023/10/7,11:05,42-04.15N,141-35.31E,180,17.559,33.378
667,2023/10/7,11:06,42-03.88N,141-35.31E,181,17.647,33.3528
668,2023/10/7,11:07,42-03.61N,141-35.30E,180,17.73,33.3382
669,2023/10/7,11:08,42-03.34N,141-35.29E,181,17.737,33.3316
670,2023/10/7,11:09,42-03.06N,141-35.28E,181,17.71,33.3181
671,2023/10/7,11:10,42-02.80N,141-35.28E,181,17.699,33.3027
672,2023/10/7,11:11,42-02.53N,141-35.27E,181,17.677,33.284
673,2023/10/7,11:12,42-02.26N,141-35.26E,181,17.663,33.2677
674,2023/10/7,11:13,42-02.03N,141-35.24E,181,17.639,33.2514
675,2023/10/7,11:14,42-01.76N,141-35.23E,181,17.673,33.2307
676,2023/10/7,11:15,42-01.50N,141-35.23E,181,17.745,33.2149
677,2023/10/7,11:16,42-01.19N,141-35.22E,181,17.891,33.2072
678,2023/10/7,11:17,42-00.91N,141-35.21E,181,18.004,33.2044
679,2023/10/7,11:18,42-00.65N,141-35.20E,182,18.062,33.2025
680,2023/10/7,11:19,42-00.38N,141-35.18E,182,18.079,33.2007
681,2023/10/7,11:20,42-00.11N,141-35.17E,182,18.106,33.1963
682,2023/10/7,11:21,41-59.84N,141-35.16E,182,18.148,33.1926
683,2023/10/7,11:22,41-59.57N,141-35.14E,182,18.193,33.1925
684,2023/10/7,11:23,41-59.33N,141-35.13E,182,18.218,33.1948
685,2023/10/7,11:24,41-59.06N,141-35.11E,182,18.223,33.198
686,2023/10/7,11:25,41-58.79N,141-35.09E,182,18.237,33.1981
687,2023/10/7,11:26,41-58.49N,141-35.07E,182,18.255,33.1959
688,2023/10/7,11:27,41-58.21N,141-35.05E,182,18.267,33.1916
689,2023/10/7,11:28,41-57.94N,141-35.04E,183,18.274,33.1848
690,2023/10/7,11:29,41-57.71N,141-35.02E,182,18.279,33.1783
691,2023/10/7,11:30,41-57.43N,141-35.00E,183,18.281,33.1712
692,2023/10/7,11:31,41-57.16N,141-34.98E,182,18.277,33.1622
693,2023/10/7,11:32,41-56.88N,141-34.97E,182,18.285,33.1568
694,2023/10/7,11:33,41-56.61N,141-34.95E,183,18.3,33.1514
695,2023/10/7,11:34,41-56.34N,141-34.93E,183,18.306,33.1515
696,2023/10/7,11:35,41-56.05N,141-34.91E,183,18.306,33.1541
697,2023/10/7,11:36,41-55.75N,141-34.88E,183,18.308,33.1546
698,2023/10/7,11:37,41-55.49N,141-34.86E,183,18.302,33.1537
699,2023/10/7,11:38,41-55.24N,141-34.84E,183,18.3,33.154
700,2023/10/7,11:39,41-54.96N,141-34.82E,184,18.296,33.1549
701,2023/10/7,11:40,41-54.68N,141-34.80E,183,18.294,33.1559
702,2023/10/7,11:41,41-54.41N,141-34.78E,183,18.295,33.1573
703,2023/10/7,11:42,41-54.13N,141-34.75E,183,18.292,33.1581
704,2023/10/7,11:43,41-53.86N,141-34.73E,183,18.29,33.1599
705,2023/10/7,11:44,41-53.58N,141-34.71E,183,18.287,33.164
706,2023/10/7,11:45,41-53.30N,141-34.69E,183,18.288,33.1669
707,2023/10/7,11:46,41-53.03N,141-34.67E,183,18.286,33.1695
708,2023/10/7,11:47,41-52.75N,141-34.65E,183,18.284,33.1729
709,2023/10/7,11:48,41-52.48N,141-34.63E,183,18.279,33.1743
710,2023/10/7,11:49,41-52.20N,141-34.61E,183,18.278,33.1782
711,2023/10/7,11:50,41-51.92N,141-34.59E,182,18.274,33.1797
712,2023/10/7,11:51,41-51.64N,141-34.57E,183,18.277,33.1843
713,2023/10/7,11:52,41-51.36N,141-34.55E,183,18.269,33.1856
714,2023/10/7,11:53,41-51.09N,141-34.53E,182,18.266,33.187
715,2023/10/7,11:54,41-50.81N,141-34.52E,182,18.258,33.1917
716,2023/10/7,11:55,41-50.53N,141-34.50E,182,18.25,33.1939
717,2023/10/7,11:56,41-50.26N,141-34.49E,182,18.235,33.196
718,2023/10/7,11:57,41-49.97N,141-34.47E,182,18.222,33.1989
719,2023/10/7,11:58,41-49.71N,141-34.46E,182,18.209,33.2005
720,2023/10/7,11:59,41-49.43N,141-34.44E,182,18.19,33.2065
721,2023/10/7,12:00,41-49.15N,141-34.43E,182,18.171,33.2138
722,2023/10/7,12:01,41-48.88N,141-34.41E,182,18.156,33.2238
723,2023/10/7,12:02,41-48.60N,141-34.40E,182,18.141,33.2364
724,2023/10/7,12:03,41-48.29N,141-34.37E,182,18.127,33.25
725,2023/10/7,12:04,41-48.02N,141-34.36E,182,18.102,33.2612
726,2023/10/7,12:05,41-47.72N,141-34.33E,184,18.079,33.2782
727,2023/10/7,12:06,41-47.51N,141-34.32E,183,18.052,33.2843
728,2023/10/7,12:07,41-47.23N,141-34.30E,183,18.012,33.3067
729,2023/10/7,12:08,41-46.96N,141-34.29E,182,17.922,33.3267
730,2023/10/7,12:09,41-46.68N,141-34.27E,182,17.805,33.3472
731,2023/10/7,12:10,41-46.41N,141-34.25E,182,17.796,33.3463
732,2023/10/7,12:11,41-46.14N,141-34.24E,182,17.809,33.3452
733,2023/10/7,12:12,41-45.87N,141-34.22E,182,17.843,33.3521
734,2023/10/7,12:13,41-45.59N,141-34.20E,182,17.887,33.369
735,2023/10/7,12:14,41-45.32N,141-34.18E,182,17.912,33.391
736,2023/10/7,12:15,41-45.05N,141-34.17E,183,17.899,33.4134
737,2023/10/7,12:16,41-44.78N,141-34.15E,182,17.962,33.4261
738,2023/10/7,12:17,41-44.50N,141-34.14E,182,18.021,33.44
739,2023/10/7,12:18,41-44.23N,141-34.12E,182,18.053,33.4592
740,2023/10/7,12:19,41-43.96N,141-34.10E,183,18.101,33.4631
741,2023/10/7,12:20,41-43.67N,141-34.08E,182,18.18,33.4706
742,2023/10/7,12:21,41-43.40N,141-34.07E,182,18.328,33.4755
743,2023/10/7,12:22,41-43.12N,141-34.05E,183,18.497,33.4829
744,2023/10/7,12:23,41-42.85N,141-34.03E,182,18.639,33.4941
745,2023/10/7,12:24,41-42.57N,141-34.02E,182,18.767,33.5006
746,2023/10/7,12:25,41-42.29N,141-34.01E,180,18.862,33.503
747,2023/10/7,12:26,41-42.02N,141-34.01E,180,19.004,33.4961
748,2023/10/7,12:27,41-41.74N,141-34.01E,179,19.107,33.4947
749,2023/10/7,12:28,41-41.47N,141-34.01E,179,19.044,33.5081
750,2023/10/7,12:29,41-41.20N,141-34.02E,179,18.825,33.5617
751,2023/10/7,12:30,41-40.92N,141-34.02E,180,18.682,33.6305
752,2023/10/7,12:31,41-40.66N,141-34.02E,179,18.561,33.6629
753,2023/10/7,12:32,41-40.37N,141-34.03E,178,18.581,33.6827
754,2023/10/7,12:33,41-40.11N,141-34.04E,178,18.683,33.6914
755,2023/10/7,12:34,41-39.84N,141-34.06E,176,19.038,33.6825
756,2023/10/7,12:35,41-39.55N,141-34.08E,177,19.488,33.6718
757,2023/10/7,12:36,41-39.28N,141-34.10E,176,19.511,33.6545
758,2023/10/7,12:37,41-39.00N,141-34.13E,172,19.522,33.635
759,2023/10/7,12:38,41-38.71N,141-34.19E,172,19.331,33.6368
760,2023/10/7,12:39,41-38.44N,141-34.23E,173,19.409,33.632
761,2023/10/7,12:40,41-38.14N,141-34.28E,173,19.499,33.5852
762,2023/10/7,12:41,41-37.85N,141-34.34E,169,19.602,33.5438
763,2023/10/7,12:42,41-37.56N,141-34.42E,168,20.139,33.5371
764,2023/10/7,12:43,41-37.27N,141-34.49E,169,20.64,33.5317
765,2023/10/7,12:44,41-36.97N,141-34.56E,168,20.864,33.5043
766,2023/10/7,12:45,41-36.67N,141-34.64E,169,20.985,33.4852
767,2023/10/7,12:46,41-36.37N,141-34.71E,169,20.966,33.4881
768,2023/10/7,12:47,41-36.07N,141-34.79E,169,20.878,33.4912
769,2023/10/7,12:48,41-35.76N,141-34.86E,169,20.775,33.5009
770,2023/10/7,12:49,41-35.46N,141-34.93E,170,20.628,33.5114
771,2023/10/7,12:50,41-35.15N,141-35.00E,170,20.541,33.5305
772,2023/10/7,12:51,41-34.84N,141-35.07E,170,20.503,33.5431
773,2023/10/7,12:52,41-34.53N,141-35.13E,170,20.557,33.5459
774,2023/10/7,12:53,41-34.23N,141-35.19E,171,20.635,33.5473
775,2023/10/7,12:54,41-33.92N,141-35.25E,171,20.645,33.547
776,2023/10/7,12:55,41-33.61N,141-35.31E,172,20.602,33.5493
777,2023/10/7,12:56,41-33.30N,141-35.36E,172,20.587,33.56
778,2023/10/7,12:57,41-32.98N,141-35.41E,173,20.47,33.5759
779,2023/10/7,12:58,41-32.66N,141-35.47E,173,20.332,33.5936
780,2023/10/7,12:59,41-32.36N,141-35.51E,174,20.11,33.6169
781,2023/10/7,13:00,41-32.05N,141-35.56E,173,19.792,33.6253
782,2023/10/7,13:01,41-31.74N,141-35.60E,175,20.181,33.6537
783,2023/10/7,13:02,41-31.44N,141-35.62E,175,18.913,33.6441
784,2023/10/7,13:03,41-31.15N,141-35.65E,174,18.739,33.6852
785,2023/10/7,13:04,41-30.86N,141-35.68E,175,19.074,33.7169
786,2023/10/7,13:05,41-30.58N,141-35.72E,173,19.281,33.7206
787,2023/10/7,13:06,41-30.29N,141-35.76E,174,19.585,33.7018
788,2023/10/7,13:07,41-30.02N,141-35.78E,176,20.16,33.6865
789,2023/10/7,13:08,41-29.75N,141-35.80E,176,20.371,33.6652
790,2023/10/7,13:09,41-29.47N,141-35.82E,177,20.396,33.6341
791,2023/10/7,13:10,41-29.20N,141-35.84E,177,20.364,33.6274
792,2023/10/7,13:11,41-28.93N,141-35.86E,176,20.404,33.6331
793,2023/10/7,13:12,41-28.65N,141-35.87E,177,20.429,33.6396
794,2023/10/7,13:13,41-28.38N,141-35.89E,177,20.466,33.6323
795,2023/10/7,13:14,41-28.10N,141-35.91E,177,20.515,33.6294
796,2023/10/7,13:15,41-27.82N,141-35.92E,177,20.556,33.627
797,2023/10/7,13:16,41-27.54N,141-35.94E,177,20.61,33.6243
798,2023/10/7,13:17,41-27.28N,141-35.95E,177,20.673,33.6229
799,2023/10/7,13:18,41-27.00N,141-35.96E,177,20.745,33.6215
800,2023/10/7,13:19,41-26.73N,141-35.98E,178,20.808,33.6194
801,2023/10/7,13:20,41-26.44N,141-35.99E,178,20.875,33.617
802,2023/10/7,13:21,41-26.18N,141-35.99E,179,20.932,33.6156
803,2023/10/7,13:22,41-25.90N,141-36.00E,178,20.991,33.6131
804,2023/10/7,13:23,41-25.63N,141-36.01E,178,21.061,33.6133
805,2023/10/7,13:24,41-25.36N,141-36.03E,174,21.152,33.6112
806,2023/10/7,13:25,41-25.10N,141-36.12E,163,21.261,33.6103
807,2023/10/7,13:26,41-24.85N,141-36.23E,162,21.349,33.6068
808,2023/10/7,13:27,41-24.58N,141-36.33E,163,21.42,33.6031
809,2023/10/7,13:28,41-24.31N,141-36.44E,163,21.482,33.5962
810,2023/10/7,13:29,41-24.05N,141-36.54E,164,21.51,33.5929
811,2023/10/7,13:30,41-23.77N,141-36.64E,164,21.518,33.5907
812,2023/10/7,13:31,41-23.51N,141-36.73E,166,21.532,33.5917
813,2023/10/7,13:32,41-23.23N,141-36.81E,167,21.536,33.592
814,2023/10/7,13:33,41-22.95N,141-36.89E,167,21.545,33.5928
815,2023/10/7,13:34,41-22.69N,141-36.96E,168,21.549,33.5925
816,2023/10/7,13:35,41-22.41N,141-37.04E,167,21.549,33.5932
817,2023/10/7,13:36,41-22.14N,141-37.12E,168,21.552,33.5933
818,2023/10/7,13:37,41-21.86N,141-37.19E,168,21.549,33.594
819,2023/10/7,13:38,41-21.59N,141-37.27E,168,21.544,33.5945
820,2023/10/7,13:39,41-21.32N,141-37.34E,168,21.546,33.5945
821,2023/10/7,13:40,41-21.05N,141-37.42E,168,21.546,33.5953
822,2023/10/7,13:41,41-20.78N,141-37.49E,169,21.549,33.5944
823,2023/10/7,13:42,41-20.51N,141-37.56E,169,21.551,33.5952
824,2023/10/7,13:43,41-20.23N,141-37.63E,169,21.548,33.5948
825,2023/10/7,13:44,41-19.95N,141-37.70E,169,21.548,33.5957
826,2023/10/7,13:45,41-19.69N,141-37.77E,169,21.547,33.596
827,2023/10/7,13:46,41-19.42N,141-37.83E,169,21.546,33.5958
828,2023/10/7,13:47,41-19.15N,141-37.90E,169,21.544,33.5964
829,2023/10/7,13:48,41-18.85N,141-37.97E,169,21.542,33.5965
830,2023/10/7,13:49,41-18.60N,141-38.04E,169,21.535,33.5956
831,2023/10/7,13:50,41-18.34N,141-38.10E,170,21.534,33.5967
832,2023/10/7,13:51,41-18.03N,141-38.18E,169,21.529,33.597
833,2023/10/7,13:52,41-17.79N,141-38.24E,169,21.531,33.5972
834,2023/10/7,13:53,41-17.52N,141-38.30E,169,21.53,33.5982
835,2023/10/7,13:54,41-17.26N,141-38.36E,170,21.537,33.5982
836,2023/10/7,13:55,41-16.98N,141-38.42E,169,21.538,33.5966
837,2023/10/7,13:56,41-16.71N,141-38.49E,170,21.541,33.5968
838,2023/10/7,13:57,41-16.44N,141-38.55E,169,21.544,33.5965
839,2023/10/7,13:58,41-16.17N,141-38.61E,169,21.622,33.5959
840,2023/10/7,13:59,41-15.90N,141-38.67E,170,21.699,33.593
841,2023/10/7,14:00,41-15.60N,141-38.74E,170,21.735,33.5837
842,2023/10/7,14:01,41-15.33N,141-38.80E,170,21.75,33.5761
843,2023/10/7,14:02,41-15.06N,141-38.86E,170,21.768,33.5732
844,2023/10/7,14:03,41-14.78N,141-38.92E,170,21.78,33.5721
845,2023/10/7,14:04,41-14.52N,141-38.98E,170,21.797,33.5687
846,2023/10/7,14:05,41-14.24N,141-39.04E,170,21.814,33.5641
847,2023/10/7,14:06,41-13.97N,141-39.09E,170,21.819,33.56
848,2023/10/7,14:07,41-13.70N,141-39.15E,171,21.836,33.5545
849,2023/10/7,14:08,41-13.42N,141-39.21E,171,21.857,33.5513
850,2023/10/7,14:09,41-13.20N,141-39.26E,170,21.872,33.5478
851,2023/10/7,14:10,41-12.90N,141-39.32E,171,21.881,33.5472
852,2023/10/7,14:11,41-12.66N,141-39.37E,171,21.875,33.5464
853,2023/10/7,14:12,41-12.39N,141-39.42E,171,21.889,33.5457
854,2023/10/7,14:13,41-12.11N,141-39.48E,171,21.902,33.5453
855,2023/10/7,14:14,41-11.83N,141-39.53E,171,21.916,33.5449
856,2023/10/7,14:15,41-11.56N,141-39.58E,172,21.93,33.5417
857,2023/10/7,14:16,41-11.29N,141-39.63E,172,21.957,33.5359
858,2023/10/7,14:17,41-11.02N,141-39.68E,172,21.983,33.5302
859,2023/10/7,14:18,41-10.71N,141-39.74E,172,22.004,33.5281
860,2023/10/7,14:19,41-10.46N,141-39.78E,172,22.015,33.5273
861,2023/10/7,14:20,41-10.20N,141-39.83E,172,22.037,33.5277
862,2023/10/7,14:21,41-09.92N,141-39.88E,171,22.046,33.5287
863,2023/10/7,14:22,41-09.63N,141-39.95E,170,22.049,33.5307
864,2023/10/7,14:23,41-09.35N,141-40.01E,169,22.04,33.5337
865,2023/10/7,14:24,41-09.10N,141-40.07E,170,22.032,33.5364
866,2023/10/7,14:25,41-08.79N,141-40.14E,169,22.017,33.542
867,2023/10/7,14:26,41-08.53N,141-40.20E,169,22.002,33.5458
868,2023/10/7,14:27,41-08.27N,141-40.26E,170,21.986,33.5485
869,2023/10/7,14:28,41-08.01N,141-40.32E,170,21.968,33.5523
870,2023/10/7,14:29,41-07.72N,141-40.38E,170,21.953,33.5554
871,2023/10/7,14:30,41-07.43N,141-40.44E,169,21.922,33.5579
872,2023/10/7,14:31,41-07.17N,141-40.51E,169,21.872,33.5611
873,2023/10/7,14:32,41-06.90N,141-40.57E,170,21.848,33.5644
874,2023/10/7,14:33,41-06.62N,141-40.64E,169,21.849,33.5664
875,2023/10/7,14:34,41-06.34N,141-40.70E,170,21.871,33.5673
876,2023/10/7,14:35,41-06.08N,141-40.76E,170,21.874,33.561
877,2023/10/7,14:36,41-05.84N,141-40.81E,170,21.869,33.5536
878,2023/10/7,14:37,41-05.57N,141-40.87E,170,21.867,33.5496
879,2023/10/7,14:38,41-05.29N,141-40.93E,170,21.84,33.5477
880,2023/10/7,14:39,41-05.02N,141-40.99E,171,21.803,33.5477
881,2023/10/7,14:40,41-04.74N,141-41.05E,170,21.74,33.5479
882,2023/10/7,14:41,41-04.48N,141-41.12E,169,21.663,33.5486
883,2023/10/7,14:42,41-04.20N,141-41.18E,169,21.612,33.5539
884,2023/10/7,14:43,41-03.92N,141-41.25E,169,21.584,33.5625
885,2023/10/7,14:44,41-03.65N,141-41.32E,169,21.557,33.5725
886,2023/10/7,14:45,41-03.37N,141-41.39E,169,21.537,33.5841
887,2023/10/7,14:46,41-03.10N,141-41.45E,169,21.512,33.5903
888,2023/10/7,14:47,41-02.82N,141-41.52E,169,21.464,33.595
889,2023/10/7,14:48,41-02.54N,141-41.59E,168,21.401,33.6003
890,2023/10/7,14:49,41-02.26N,141-41.66E,168,21.337,33.6053
891,2023/10/7,14:50,41-02.00N,141-41.73E,169,21.318,33.61
892,2023/10/7,14:51,41-01.72N,141-41.81E,166,21.239,33.6114
893,2023/10/7,14:52,41-01.45N,141-41.91E,165,21.185,33.6167
894,2023/10/7,14:53,41-01.17N,141-42.00E,166,21.301,33.6243
895,2023/10/7,14:54,41-00.90N,141-42.08E,166,21.429,33.6262
896,2023/10/7,14:55,41-00.62N,141-42.17E,166,21.441,33.6139
897,2023/10/7,14:56,41-00.36N,141-42.26E,166,21.422,33.6037
898,2023/10/7,14:57,41-00.08N,141-42.35E,165,21.428,33.6029
899,2023/10/7,14:58,40-59.81N,141-42.45E,166,21.5,33.6034
900,2023/10/7,14:59,40-59.54N,141-42.54E,165,21.538,33.5946
901,2023/10/7,15:00,40-59.27N,141-42.63E,164,21.536,33.5886
902,2023/10/7,15:01,40-59.00N,141-42.73E,165,21.526,33.5843
903,2023/10/7,15:02,40-58.73N,141-42.83E,164,21.515,33.5821
904,2023/10/7,15:03,40-58.45N,141-42.92E,165,21.503,33.584
905,2023/10/7,15:04,40-58.19N,141-43.01E,165,21.495,33.5849
906,2023/10/7,15:05,40-57.92N,141-43.11E,164,21.495,33.5874
907,2023/10/7,15:06,40-57.65N,141-43.21E,165,21.501,33.5912
908,2023/10/7,15:07,40-57.39N,141-43.30E,164,21.508,33.593
909,2023/10/7,15:08,40-57.11N,141-43.39E,165,21.505,33.5962
910,2023/10/7,15:09,40-56.86N,141-43.49E,164,21.498,33.5971
911,2023/10/7,15:10,40-56.59N,141-43.58E,165,21.494,33.5976
912,2023/10/7,15:11,40-56.32N,141-43.68E,164,21.485,33.595
913,2023/10/7,15:12,40-56.06N,141-43.78E,164,21.474,33.5937
914,2023/10/7,15:13,40-55.79N,141-43.88E,163,21.474,33.5925
915,2023/10/7,15:14,40-55.52N,141-43.98E,164,21.511,33.5932
916,2023/10/7,15:15,40-55.26N,141-44.08E,164,21.543,33.5912
917,2023/10/7,15:16,40-54.99N,141-44.18E,164,21.569,33.5875
918,2023/10/7,15:17,40-54.72N,141-44.28E,164,21.592,33.5836
919,2023/10/7,15:18,40-54.44N,141-44.39E,163,21.615,33.581
920,2023/10/7,15:19,40-54.18N,141-44.49E,163,21.637,33.5783
921,2023/10/7,15:20,40-53.91N,141-44.60E,163,21.654,33.5755
922,2023/10/7,15:21,40-53.64N,141-44.70E,164,21.677,33.574
923,2023/10/7,15:22,40-53.38N,141-44.80E,163,21.684,33.5724
924,2023/10/7,15:23,40-53.10N,141-44.91E,164,21.68,33.5685
925,2023/10/7,15:24,40-52.84N,141-45.01E,164,21.66,33.5676
926,2023/10/7,15:25,40-52.57N,141-45.11E,164,21.648,33.568
927,2023/10/7,15:26,40-52.29N,141-45.21E,164,21.644,33.5704
928,2023/10/7,15:27,40-52.03N,141-45.30E,165,21.674,33.5715
929,2023/10/7,15:28,40-51.76N,141-45.40E,165,21.694,33.5712
930,2023/10/7,15:29,40-51.49N,141-45.49E,165,21.68,33.5724
931,2023/10/7,15:30,40-51.22N,141-45.59E,164,21.646,33.5729
932,2023/10/7,15:31,40-50.94N,141-45.69E,164,21.598,33.5762
933,2023/10/7,15:32,40-50.67N,141-45.79E,164,21.564,33.5804
934,2023/10/7,15:33,40-50.40N,141-45.88E,165,21.638,33.5853
935,2023/10/7,15:34,40-50.13N,141-45.98E,165,21.704,33.582
936,2023/10/7,15:35,40-49.88N,141-46.07E,165,21.717,33.5666
937,2023/10/7,15:36,40-49.61N,141-46.16E,165,21.76,33.5583
938,2023/10/7,15:37,40-49.35N,141-46.25E,165,21.778,33.5596
939,2023/10/7,15:38,40-49.08N,141-46.34E,166,21.783,33.5618
940,2023/10/7,15:39,40-48.81N,141-46.43E,166,21.768,33.5611
941,2023/10/7,15:40,40-48.55N,141-46.51E,166,21.746,33.5605